Volver al catálogo

COSMOS 1275 DEB

ActivoPO
NORAD 39962·DEBRIS·🇷🇺 Russia

Lanzado Jun 4, 1981 desde Plesetsk Cosmodrome

Loading…

Próximos Pases (próximas 24 horas)

TLE

EnvejeciendoSource: Space-Track

Época: Sep 6, 2026, 13:51 UTC

1 39962U 81053NY  26249.57720961  .00000374  00000-0  33611-3 0  9997
2 39962  82.8241 353.9801 0072373 186.3920 173.6324 13.80555988616445

Sigue COSMOS 1275 DEB en tiempo real con AllMySat

Download on the App Store